Вернуться в каталог

DELTA 1 DEB

АктивенSSO
NORAD 12255·DEBRIS·🇺🇸 United States

Запущен Mar 5, 1978 с Vandenberg Space Force Base

Loading…

Ближайшие Пролёты (ближайшие 24 часа)

TLE

СвежийSource: Space-Track

Эпоха: Sep 13, 2026, 14:05 UTC

1 12255U 78026CY  26256.58730850 -.00000061  00000-0 -10923-4 0  9993
2 12255  98.9577 198.1815 0019706 135.6599 224.6149 14.02765135699484

Отслеживайте DELTA 1 DEB в реальном времени с AllMySat

Download on the App Store